Amateur Radio Satellites - All Passes

Search period start: 21 May 2013 14:19
Search period end: 22 May 2013 14:19
Location: Waltman Observatory, 32.5145°N, 90.4450°W

Satellite Date Start Highest point End Downlink Frequencies (MHz)
Time Altitude Azimuth
Oscar 16 21 May 14:19:31 14:24:39 66° 258° (WSW) 14:29:51 437.025 USB, Beacon 2401.1428
AO-27 21 May 14:25:03 14:30:13 82° 257° (WSW) 14:35:25 436.795 MHz FM
ITAMSAT 1 21 May 14:32:07 14:37:15 71° 258° (WSW) 14:42:26 435.822 SSB
Gurwin Techsat 1B 21 May 14:43:45 14:46:45 15° 66° (ENE) 14:49:44 435.225 FM
RS-15 21 May 14:55:36 15:03:27 20° 101° (E) 15:11:06 29.354 - 29.394 USB, Beacon 29.352 USB
Uribyol 2 21 May 15:14:39 15:18:50 25° 264° (W) 15:23:03 436.500 FM
AO-7 21 May 15:18:26 15:22:24 14° 54° (NE) 15:26:21 29.400 - 29.500 MHz
Oscar 19 21 May 15:21:30 15:25:05 19° 265° (W) 15:28:41 437.125 CW, 437.150 USB
Uosat F 21 May 15:26:15 15:31:05 52° 73° (ENE) 15:35:56 435.120 FM
AO-Echo 21 May 15:34:57 15:39:43 49° 260° (W) 15:44:22 ?
Saudisat 1A 21 May 15:52:08 15:56:40 77° 243° (WSW) 16:01:04 436.775 MHz
PANSAT 21 May 15:55:08 15:58:39 33° 192° (SSW) 16:02:09 not established
TMSAT-1 21 May 16:00:02 16:05:12 59° 74° (ENE) 16:10:24 436.925 FM
Gurwin Techsat 1B 21 May 16:21:02 16:26:12 55° 260° (W) 16:31:25 435.225 FM
PCSat 21 May 16:23:44 16:27:19 18° 53° (NE) 16:30:53 145.825 MHz
Sapphire 21 May 16:55:44 17:00:33 31° 58° (ENE) 17:05:19 437.095 MHz 1200 baud AX-25 AFSK
RS-15 21 May 17:02:18 17:14:29 87° 297° (WNW) 17:26:13 29.354 - 29.394 USB, Beacon 29.352 USB
AO-7 21 May 17:05:36 17:13:52 80° 72° (ENE) 17:22:11 29.400 - 29.500 MHz
Uosat F 21 May 17:07:45 17:10:08 13° 267° (W) 17:12:31 435.120 FM
PANSAT 21 May 17:36:40 17:38:32 13° 203° (SSW) 17:40:23 not established
TMSAT-1 21 May 17:43:04 17:45:27 13° 268° (W) 17:47:49 436.925 FM
PCSat 21 May 18:05:47 18:11:05 56° 249° (WSW) 18:16:21 145.825 MHz
STRAND 1 21 May 18:26:56 18:30:39 20° 95° (E) 18:34:21 ?
Oscar 10/S400 21 May 18:27:01 14:18:52 18° 286° (WNW) 18:48:43 145.825 - 145.975 CW/USB, Beacon 145.810 USB
Sapphire 21 May 18:39:15 18:43:50 28° 253° (WSW) 18:48:24 437.095 MHz 1200 baud AX-25 AFSK
SO-50 21 May 18:44:16 18:48:48 88° 242° (WSW) 18:53:16 436.795 FM
AO-7 21 May 19:02:23 19:07:18 17° 266° (W) 19:12:15 29.400 - 29.500 MHz
JAS-1B 21 May 19:05:07 19:13:26 37° 69° (ENE) 19:20:47 435.800 - 435.900 CW/SSB
SO-67 21 May 19:19:03 19:21:26 17° 71° (ENE) 19:23:50 435.3500 MHz FM
RS-15 21 May 19:19:33 19:28:37 24° 319° (NW) 19:37:28 29.354 - 29.394 USB, Beacon 29.352 USB
Hamsat 21 May 19:25:51 19:30:03 88° 78° (ENE) 19:34:17 145.90 MHz
STRAND 1 21 May 20:05:11 20:09:54 38° 288° (WNW) 20:14:37 ?
UOSAT-12 21 May 20:14:03 20:16:51 16° 50° (NE) 20:19:38 437.025 FM, 437.400 FM
HO-68 21 May 20:26:48 20:31:57 22° 62° (ENE) 20:37:06 435.675 MHz FM
SO-67 21 May 20:52:03 20:54:43 20° 264° (W) 20:57:25 435.3500 MHz FM
JAS-1B 21 May 20:54:35 21:03:40 47° 260° (W) 21:11:43 435.800 - 435.900 CW/SSB
JAS-2 21 May 21:21:36 21:28:37 42° 69° (ENE) 21:35:52 435.800 - 435.900 CW/SSB, 435.910 FM
Oscar 11 21 May 21:21:54 21:25:09 21° 70° (ENE) 21:28:24 145.825 FM, Beacon 2401.500 USB
UOSAT-12 21 May 21:52:49 21:57:16 50° 246° (WSW) 22:01:42 437.025 FM, 437.400 FM
HO-68 21 May 22:12:02 22:19:03 61° 257° (WSW) 22:26:06 435.675 MHz FM
OPAL 21 May 22:25:27 22:30:36 65° 73° (ENE) 22:35:44 ?
KITSAT 1 21 May 22:40:36 22:48:11 48° 109° (ESE) 22:55:49 435.175 FM
Oscar 11 21 May 22:57:37 23:01:12 25° 263° (W) 23:04:48 145.825 FM, Beacon 2401.500 USB
JAS-2 21 May 23:06:44 23:13:31 36° 264° (W) 23:20:35 435.800 - 435.900 CW/SSB, 435.910 FM
RS-15 22 May 00:00:00 00:07:13 19° 34° (NE) 00:14:15 29.354 - 29.394 USB, Beacon 29.352 USB
OPAL 22 May 00:08:01 00:09:48 12° 265° (W) 00:11:36 ?
KITSAT 1 22 May 00:36:34 00:43:41 34° 306° (NW) 00:50:53 435.175 FM
AO-40 22 May 01:23:28 03:00:18 47° 225° (SW) 08:17:48 Beacon 2401.320
ISS 22 May 01:30:46 01:31:16 10° 125° (SE) 01:31:46 145.800 FM
MaSat-1 22 May 01:32:12 01:39:13 48° 108° (ESE) 01:45:18 437.345 MHz
Uribyol 2 22 May 01:53:20 01:56:32 16° 94° (E) 01:59:42 436.500 FM
Oscar 19 22 May 01:57:54 02:01:46 21° 95° (E) 02:05:36 437.125 CW, 437.150 USB
RS-15 22 May 02:10:57 02:22:00 71° 60° (ENE) 02:32:49 29.354 - 29.394 USB, Beacon 29.352 USB
Oscar 16 22 May 02:36:03 02:41:12 65° 101° (ESE) 02:46:18 437.025 USB, Beacon 2401.1428
AO-27 22 May 02:42:55 02:48:02 54° 101° (E) 02:53:08 436.795 MHz FM
ITAMSAT 1 22 May 02:49:45 02:54:56 62° 101° (ESE) 03:00:06 435.822 SSB
ISS 22 May 03:04:22 03:07:35 51° 318° (NW) 03:10:50 145.800 FM
MaSat-1 22 May 03:15:28 03:21:27 28° 298° (WNW) 03:26:40 437.345 MHz
Uribyol 2 22 May 03:31:11 03:36:12 47° 287° (WNW) 03:41:11 436.500 FM
Oscar 19 22 May 03:36:29 03:41:09 36° 289° (WNW) 03:45:48 437.125 CW, 437.150 USB
Uosat F 22 May 03:39:20 03:43:21 24° 96° (E) 03:47:22 435.120 FM
AO-Echo 22 May 03:46:29 03:51:15 77° 102° (ESE) 03:56:08 ?
Oscar 16 22 May 04:17:54 04:19:57 12° 296° (WNW) 04:21:59 437.025 USB, Beacon 2401.1428
TMSAT-1 22 May 04:20:56 04:25:45 35° 98° (E) 04:30:33 436.925 FM
AO-27 22 May 04:24:07 04:27:04 15° 295° (WNW) 04:30:01 436.795 MHz FM
RS-15 22 May 04:25:04 04:33:12 25° 257° (WSW) 04:41:21 29.354 - 29.394 USB, Beacon 29.352 USB
ITAMSAT 1 22 May 04:31:26 04:33:52 13° 295° (WNW) 04:36:18 435.822 SSB
Gurwin Techsat 1B 22 May 04:41:52 04:47:12 89° 103° (ESE) 04:52:31 435.225 FM
AO-7 22 May 05:12:55 05:20:27 36° 99° (E) 05:27:54 29.400 - 29.500 MHz
Uosat F 22 May 05:17:45 05:22:06 30° 290° (WNW) 05:26:27 435.120 FM
STRAND 1 22 May 05:39:09 05:42:36 19° 67° (ENE) 05:46:03 ?
Saudisat 1A 22 May 05:54:46 05:59:18 86° 117° (ESE) 06:03:55 436.775 MHz
TMSAT-1 22 May 06:01:19 06:05:27 24° 292° (WNW) 06:09:34 436.925 FM
KITSAT 1 22 May 06:41:51 06:44:18 11° 38° (NE) 06:46:45 435.175 FM
PCSat 22 May 07:00:05 07:04:59 37° 109° (ESE) 07:09:55 145.825 MHz
AO-7 22 May 07:05:27 07:13:10 43° 294° (WNW) 07:20:53 29.400 - 29.500 MHz
STRAND 1 22 May 07:16:40 07:21:26 41° 261° (W) 07:26:15 ?
Hamsat 22 May 07:17:36 07:21:04 23° 96° (E) 07:24:32 145.90 MHz
Sapphire 22 May 07:32:28 07:37:49 73° 113° (ESE) 07:43:13 437.095 MHz 1200 baud AX-25 AFSK
SO-67 22 May 08:22:29 08:25:53 40° 99° (E) 08:29:16 435.3500 MHz FM
KITSAT 1 22 May 08:33:38 08:41:37 56° 60° (ENE) 08:49:32 435.175 FM
PCSat 22 May 08:44:03 08:48:27 25° 304° (NW) 08:52:52 145.825 MHz
JAS-1B 22 May 08:46:37 08:52:32 74° 102° (ESE) 08:58:10 435.800 - 435.900 CW/SSB
Hamsat 22 May 08:53:30 08:57:01 24° 289° (WNW) 09:00:32 145.90 MHz
SO-50 22 May 08:54:51 08:59:40 89° 298° (WNW) 09:04:27 436.795 FM
Sapphire 22 May 09:19:03 09:21:47 14° 309° (NW) 09:24:32 437.095 MHz 1200 baud AX-25 AFSK
ISS 22 May 09:37:06 09:39:44 21° 36° (NE) 09:42:21 145.800 FM
HO-68 22 May 09:45:07 09:51:29 34° 98° (E) 09:57:49 435.675 MHz FM
JAS-2 22 May 10:22:17 10:28:45 49° 98° (E) 10:34:26 435.800 - 435.900 CW/SSB, 435.910 FM
UOSAT-12 22 May 10:23:17 10:24:37 11° 107° (ESE) 10:25:58 437.025 FM, 437.400 FM
KITSAT 1 22 May 10:30:02 10:36:27 27° 255° (WSW) 10:42:52 435.175 FM
PANSAT 22 May 10:34:17 10:36:12 13° 157° (SSE) 10:38:06 not established
JAS-1B 22 May 10:40:43 10:42:19 11° 300° (WNW) 10:43:54 435.800 - 435.900 CW/SSB
OPAL 22 May 10:40:56 10:44:59 25° 98° (E) 10:48:58 ?
Oscar 11 22 May 10:49:16 10:53:39 81° 102° (ESE) 10:58:01 145.825 FM, Beacon 2401.500 USB
ISS 22 May 11:13:28 11:16:28 30° 230° (SW) 11:19:28 145.800 FM
HO-68 22 May 11:32:37 11:39:05 38° 293° (WNW) 11:45:33 435.675 MHz FM
UOSAT-12 22 May 11:59:50 12:04:15 56° 300° (WNW) 12:08:43 437.025 FM, 437.400 FM
MaSat-1 22 May 12:05:13 12:08:12 53° 66° (ENE) 12:10:45 437.345 MHz
JAS-2 22 May 12:08:13 12:13:15 23° 297° (WNW) 12:17:51 435.800 - 435.900 CW/SSB, 435.910 FM
PANSAT 22 May 12:12:34 12:16:05 33° 168° (SSE) 12:19:37 not established
OPAL 22 May 12:19:31 12:23:48 30° 292° (WNW) 12:28:03 ?
Uribyol 2 22 May 13:07:27 13:10:32 16° 66° (ENE) 13:13:38 436.500 FM
Oscar 19 22 May 13:10:48 13:14:32 20° 68° (ENE) 13:18:16 437.125 CW, 437.150 USB
Oscar 16 22 May 13:48:28 13:53:33 59° 74° (ENE) 13:58:40 437.025 USB, Beacon 2401.1428
PANSAT 22 May 13:52:27 13:56:11 46° 181° (S) 13:59:55 not established
AO-27 22 May 13:56:42 14:01:40 51° 73° (ENE) 14:06:41 436.795 MHz FM
ITAMSAT 1 22 May 14:03:21 14:08:24 58° 74° (ENE) 14:13:30 435.822 SSB

Developed and maintained by Chris Peat, Heavens-Above GmbH. Please read the updated FAQ before sending e-mail. Imprint. DLR
